Flag for Netherlands Weather past 2 weeks in Amsterdam, Netherlands

Now
52 °F

Clear.


Feels Like: 50 °F
Forecast: 49 / 59 °F
Wind: 6 mph from Southwest

Location: Amsterdam Schiphol Airport

Current Time: May 27, 2015 at 6:56:41 AM

Latest Report: May 27, 2015 at 6:25 AM


Visibility: 10 mi

Pressure: 30.24 "Hg

Humidity: 82%

Dew point: 46 °F

Location of AmsterdamLocation

Historic Weather in Amsterdam — Graph

°F

Amsterdam temperature yesterday

Maximum temperature yesterday: 59 °F (at 1:55 PM)
Minimum temperature yesterday: 46 °F (at 3:55 AM)
Average temperature yesterday: 53 °F

Past Weeks' High & Low Weather Summary

 TemperatureHumidityPressure
High66 °F (May 22, 1:55 PM)100% (May 16, 11:25 AM)30.33 "Hg (May 16, 11:25 AM)
Low41 °F (May 24, 2:25 AM)30% (May 24, 5:25 PM)29.56 "Hg (May 19, 4:25 AM)
Average53 °F73%30.06 "Hg
* Reported May 12 5:25 AM — May 27 5:25 AM, Amsterdam, Weather by CustomWeather, © 2015

Note: Actual official high and low records may vary slightly from our data, if they occured in-between our weather recording intervals... More about our weather records

Advertising

Amsterdam weather history for previous 24 hours

 ConditionsComfort  
Time TempWeatherWind HumidityBarometerVisibility
5:25 AM
Wed, May 27
48 °FClear.6 mph87%30.24 "Hg10 mi
4:55 AM48 °FClear.6 mph87%30.24 "Hg10 mi
4:25 AM48 °FClear.3 mph82%30.24 "Hg10 mi
3:55 AM46 °FClear.5 mph87%30.24 "Hg10 mi
3:25 AM46 °FClear.6 mph82%30.24 "Hg10 mi
2:55 AM48 °FClear.5 mph82%30.24 "Hg10 mi
2:25 AM52 °FClear.7 mph77%30.24 "Hg10 mi
1:55 AM52 °FClear.7 mph77%30.24 "Hg10 mi
1:25 AM52 °FClear.6 mph77%30.24 "Hg10 mi
12:55 AM52 °FClear.5 mph77%30.24 "Hg10 mi
12:25 AM52 °FPassing clouds.6 mph77%30.24 "HgN/A
11:55 PM
Tue, May 26
52 °FClear.5 mph77%30.24 "Hg10 mi
11:25 PM52 °FClear.5 mph77%30.24 "Hg10 mi
10:55 PM50 °FClear.6 mph82%30.24 "Hg10 mi
10:25 PM50 °FSunny.6 mph76%30.24 "Hg10 mi
9:55 PM50 °FPassing clouds.7 mph76%30.24 "HgN/A
9:25 PM50 °FPassing clouds.7 mph76%30.24 "HgN/A
8:55 PM52 °FPassing clouds.9 mph67%30.24 "HgN/A
8:25 PM54 °FPassing clouds.9 mph67%30.24 "HgN/A
7:55 PM55 °FPassing clouds.13 mph59%30.24 "HgN/A
7:25 PM55 °FPassing clouds.13 mph59%30.21 "HgN/A
6:55 PM57 °FPassing clouds.13 mph55%30.21 "HgN/A
6:25 PM57 °FPassing clouds.16 mph59%30.21 "HgN/A
5:55 PM55 °FPassing clouds.15 mph59%30.21 "HgN/A
5:25 PM57 °FPassing clouds.14 mph55%30.21 "HgN/A
4:55 PM57 °FPassing clouds.16 mph55%30.18 "HgN/A
4:25 PM59 °FPassing clouds.17 mph51%30.18 "HgN/A
3:55 PM59 °FPassing clouds.16 mph51%30.18 "HgN/A
3:25 PM59 °FPassing clouds.17 mph45%30.18 "HgN/A
2:55 PM59 °FPassing clouds.17 mph45%30.18 "HgN/A
2:25 PM59 °FPassing clouds.16 mph48%30.18 "HgN/A
1:55 PM59 °FPassing clouds.16 mph48%30.15 "HgN/A
1:25 PM55 °FScattered clouds.15 mph55%30.18 "HgN/A
12:55 PM57 °FPassing clouds.16 mph55%30.15 "HgN/A
12:25 PM57 °FScattered clouds.15 mph59%30.15 "HgN/A
11:55 AM55 °FScattered clouds.13 mph63%30.15 "HgN/A
11:25 AM57 °FPassing clouds.10 mph63%30.15 "HgN/A
10:55 AM55 °FPassing clouds.13 mph67%30.15 "HgN/A
10:25 AM55 °FPassing clouds.13 mph67%30.12 "HgN/A
9:55 AM55 °FPassing clouds.13 mph67%30.12 "HgN/A
9:25 AM55 °FPassing clouds.13 mph67%30.12 "HgN/A
8:55 AM54 °FPassing clouds.13 mph72%30.12 "HgN/A
8:25 AM54 °FPassing clouds.12 mph72%30.12 "HgN/A
7:55 AM52 °FPassing clouds.12 mph82%30.09 "HgN/A
7:25 AM52 °FPassing clouds.8 mph82%30.09 "HgN/A
6:55 AM50 °FPassing clouds.8 mph82%30.09 "HgN/A
6:25 AM48 °FPassing clouds.6 mph87%30.09 "HgN/A
Weather by CustomWeather, © 2015

See weather overviewHow to use our weather pages